Flag for Egypt Weather past 2 weeks in Al Jizah, Egypt

Now
54 °F

Sunny.


Feels Like: 52 °F
Forecast: 49 / 77 °F
Wind: 6 mph from Southeast

Location: Cairo Airport

Current Time: Feb 1, 2015 at 7:46:46 AM

Latest Report: Feb 1, 2015 at 7:00 AM


Visibility: 10 mi

Pressure: 30.07 "Hg

Humidity: 33%

Dew point: 25 °F

Location of Al JizahLocation

Historic Weather in Al Jizah — Graph

°F

Al Jizah temperature yesterday

Maximum temperature yesterday: 68 °F (at 2:30 PM)
Minimum temperature yesterday: 50 °F (at 4:00 AM)
Average temperature yesterday: 59 °F

Past Weeks' High & Low Weather Summary

 TemperatureHumidityPressure
High79 °F (Jan 22, 1:30 PM)100% (Jan 25, 2:30 AM)30.36 "Hg (Jan 25, 2:30 AM)
Low46 °F (Jan 20, 3:30 AM)9% (Jan 23, 3:00 PM)29.89 "Hg (Jan 27, 3:00 PM)
Average60 °F49%30.08 "Hg
* Reported Jan 17 6:00 AM — Feb 1 6:30 AM, Al Jizah, Weather by CustomWeather, © 2014

Note: Actual official high and low records may vary slightly from our data, if they occured in-between our weather recording intervals... More about our weather records

Advertising

Al Jizah weather history for previous 24 hours

 ConditionsComfort  
Time TempWeatherWind HumidityBarometerVisibility
6:30 AM
Feb 1
52 °FClear.6 mph35%30.07 "Hg10 mi
6:00 AM52 °FClear.6 mph35%30.07 "Hg10 mi
5:00 AM52 °FClear.7 mph38%30.07 "Hg10 mi
4:30 AM54 °FClear.6 mph35%30.07 "Hg10 mi
3:00 AM54 °FClear.7 mph35%30.07 "Hg10 mi
2:30 AM54 °FClear.7 mph35%30.07 "Hg10 mi
2:00 AM54 °FClear.7 mph35%30.07 "Hg10 mi
1:30 AM54 °FClear.7 mph38%30.09 "Hg10 mi
1:00 AM55 °FClear.6 mph36%30.09 "Hg10 mi
12:30 AM55 °FClear.6 mph36%30.09 "Hg10 mi
12:00 AM55 °FClear.6 mph36%30.09 "Hg10 mi
11:30 PM
Jan 31
55 °FClear.6 mph36%30.09 "Hg10 mi
11:00 PM54 °FClear.6 mph35%30.09 "Hg10 mi
10:30 PM55 °FClear.5 mph36%30.09 "Hg10 mi
10:00 PM55 °FClear.5 mph36%30.09 "Hg10 mi
9:30 PM57 °FClear.3 mph31%30.09 "Hg10 mi
9:00 PM57 °FClear.3 mph31%30.12 "Hg10 mi
8:30 PM57 °FClear.3 mph31%30.12 "Hg10 mi
8:00 PM61 °FClear.6 mph27%30.09 "Hg10 mi
7:30 PM61 °FClear.3 mph27%30.09 "Hg10 mi
7:00 PM61 °FClear.3 mph27%30.09 "Hg10 mi
6:30 PM63 °FClear.3 mph24%30.09 "Hg10 mi
6:00 PM64 °FClear.3 mph22%30.07 "Hg10 mi
5:30 PM64 °FClear.3 mph22%30.07 "Hg10 mi
5:00 PM66 °FSunny.3 mph21%30.07 "Hg10 mi
4:30 PM66 °FSunny.3 mph21%30.07 "Hg10 mi
4:00 PM66 °FSunny.3 mph21%30.07 "Hg10 mi
3:30 PM68 °FSunny.2 mph21%30.09 "Hg10 mi
3:00 PM66 °FSunny.6 mph21%30.07 "Hg10 mi
2:30 PM68 °FSunny.No wind21%30.09 "Hg10 mi
2:00 PM66 °FSunny.5 mph22%30.09 "Hg10 mi
1:30 PM66 °FSunny.6 mph21%30.09 "Hg10 mi
1:00 PM66 °FSunny.5 mph22%30.12 "Hg10 mi
12:30 PM64 °FSunny.6 mph22%30.12 "Hg10 mi
12:00 PM64 °FSunny.8 mph22%30.12 "Hg10 mi
11:30 AM64 °FSunny.8 mph22%30.12 "Hg10 mi
11:00 AM63 °FSunny.8 mph24%30.15 "Hg10 mi
10:30 AM63 °FSunny.8 mph24%30.15 "Hg10 mi
10:00 AM63 °FSunny.8 mph24%30.15 "Hg10 mi
9:30 AM63 °FSunny.8 mph25%30.15 "Hg10 mi
9:00 AM59 °FSunny.9 mph29%30.15 "Hg10 mi
8:30 AM55 °FSunny.10 mph33%30.12 "Hg10 mi
8:00 AM54 °FSunny.12 mph35%30.12 "Hg10 mi
7:30 AM52 °FSunny.12 mph35%30.12 "Hg10 mi
7:00 AM52 °FSunny.12 mph35%30.12 "Hg10 mi
Weather by CustomWeather, © 2014

See weather overviewHow to use our weather pages